STARLINK-32856, 62819

Orbit data source: Space-Track

STARLINK-32856, 62819 is a payload satellite owned by SpaceX/Seattle (US) in LEO that was launched on Fri, 24 Jan 2025 UTC via an FALCON 9 launch vehicle from the Air Force Western Test Range (AFWTR). Payloads include a variety of satellites, spacecraft, and rockets equipped with specific instruments for various scientific and technological missions. These include communications satellites like Starlink; space stations such as the ISS; scientific satellites like the Hubble; Earth observation satellites from companies like Planet Labs, Umbra, and HawkEye 360; GPS; miniature CubeSats for education and research; and military/defense satellites.

Loading next visibility...
STARLINK-32856 details
Identifier
62819, 2025-018P
Orbit
LEO
Last TLE update9 hours ago
Origin
Flag of USSpaceX/Seattle (US)
ManufacturerSpaceX/Seattle
MissionOperational spacecraft
Bus & MotorSTARLINK V2M, Unknown motor
Mass730 kg wet, ~700 kg dry
Launch date (UTC)
2025-01-24 (3 weeks ago)
Launch vehicle
FALCON 9
Launch site
Air Force Western Test Range (AFWTR)
Object type
Payload
Rocket body
Debris
Shape & HBRUnknown
Radar Cross SectionLarge (>1 m²)

Expand to show TLE details & history

TLE from 9 hours ago
0 STARLINK-32856
1 62819U 25018P   25047.16668981 -.01595710  00000-0 -25323-1 0  9991
2 62819  53.1589 312.4995 0000725  80.8746 281.8342 15.55651934  4746
Epoch: 2025-02-16T04:00Z
Definitive object data (Epoch: 2025-02-16T04:00:01.999Z)
Latitude2.09313°
Longitude107.64786°
Altitude400.82 km
Speed7.671 km/s
True Right ascension20h 56m 14s
True Declination2° 04' 48"
Sunlit
Object was in daylight at TLE epoch
Visualization TLE readout
Latitude-42.53158°
Longitude-32.55°
Altitude418.73 km
Speed7.659 km/s
Apparent Right ascension07h 37m 23s
Apparent Declination-60° 42' 12"
Sunlit
Object is in full shadow
Visualization observer readout
Local Sidereal Time15:29:40
Azimuth219.642° SW
Elevation-47.408°
Doppler factor1
Orbital elements
Apogee altitude401.009 km
Perigee altitude400.026 km
Semi-major axis6,778.655 km
Eccentricity0.0000725
Inclination53.1589°
RAAN312.4995°
Arg. of periapsis80.8746°
True anomaly281.82607°
Mean anomaly281.8342°
Eccentric anomaly281.83013°
Mean motion3.88891 °/min
BSTAR-0.025323
Orbital period92.57 mins
Loading maneuver chart data...
Loading historical data...
Loading historical data...
Loading historical data...
Loading historical data...
Loading historical data...
Loading historical data...
Loading historical data...

STARLINK-32856 Visibility forecast

Observer location: undefined°, undefined

Span
Click to sort rows by Start time (UTC) header in descending order
Start Az.
Max El. time (UTC)
Max El. Az.
Max El.
End time (UTC)
End Az.
4 mins2025-02-16 19:35:05.562Z183.527° SSW2025-02-16 19:37:05.562Z134.064° SE24.307°2025-02-16 19:39:05.562Z82.101° E
4 mins2025-02-16 21:12:05.562Z284.377° WNW2025-02-16 21:13:05.562Z312.981° NW25.896°2025-02-16 21:16:05.562Z29.544° NE
4 mins2025-02-17 03:41:05.562Z273.705° WNW2025-02-17 03:42:05.562Z240.674° WSW29.975°2025-02-17 03:45:05.562Z160.266° S
|